Regional Weather Roundup
Issued by NWS

Home | Current Version | Previous Version | Graphics & Text | Print | Product List | Glossary On
Versions: 1 2 3 4 5 6 7 8 9 10 11 12 13 14 15 16 17 18 19 20 21 22 23 24 25 26 27 28 29 30 31 32 33 34 35 36 37 38 39 40 41 42 43 44 45 46 47 48 49 50
061
ASUS45 KPSR 230010
RWRAZ

ARIZONA HOURLY REGIONAL WEATHER ROUNDUP
NATIONAL WEATHER SERVICE PHOENIX AZ
500 PM MST TUE AUG 22 2017

NOTE: FAIR INDICATES FEW OR NO CLOUDS BELOW 12,000 FEET WITH NO
SIGNIFICANT WEATHER AND/OR OBSTRUCTIONS TO VISIBILITY.

AZZ001>003-036-230100-
NORTHWEST ARIZONA

CITY           SKY/WX    TMP DP  RH WIND       PRES   REMARKS
BULLHEAD CITY  SUNNY    106  45  12 S6        29.83F HX 101
KINGMAN        SUNNY     95  43  16 W6        30.07F
6HR MIN TEMP:  87; 6HR MAX TEMP:  97;

$$

AZZ004>008-015-016-018-230100-
NORTH CENTRAL ARIZONA

CITY           SKY/WX    TMP DP  RH WIND       PRES   REMARKS
GRAND CANYON   SUNNY     79  41  25 VRB3      30.32S
6HR MIN TEMP:  74; 6HR MAX TEMP:  81;

WILLIAMS       MOSUNNY   79  39  24 SW7G13    30.32F
PRESCOTT       MOSUNNY   87  42  20 SW5       30.19S
6HR MIN TEMP:  82; 6HR MAX TEMP:  89;

FLAGSTAFF      SUNNY     76  41  28 VRB3      30.35F
6HR MIN TEMP:  71; 6HR MAX TEMP:  78;

PAYSON           N/A     88  39  18 W8G14     30.20S
PAGE           SUNNY     90  44  20 VRB6      30.11F
6HR MIN TEMP:  81; 6HR MAX TEMP:  92;

$$

AZZ009>014-017-230100-
NORTHEAST ARIZONA

CITY           SKY/WX    TMP DP  RH WIND       PRES   REMARKS
WINSLOW        PTSUNNY   90  41  18 VRB3      30.15F
6HR MIN TEMP:  84; 6HR MAX TEMP:  94;

SAINT JOHNS    MOSUNNY   86  40  19 SW5       30.20F
6HR MIN TEMP:  82; 6HR MAX TEMP:  89;

WINDOW ROCK    MOSUNNY   85  35  16 W9        30.29F
6HR MIN TEMP:  72; 6HR MAX TEMP:  85; 6HR PCP: TRACE;

SHOW LOW       MOSUNNY   82  43  24 W10       30.28F
$$

AZZ540-542>544-546-548-230100-
GREATER PHOENIX AREA

CITY           SKY/WX    TMP DP  RH WIND       PRES   REMARKS
PHOENIX        MOSUNNY  105  47  14 CALM      29.82F HX 101
6HR MIN TEMP:  98; 6HR MAX TEMP: 108;

BUCKEYE        SUNNY    104  46  14 S7        29.84F HX 100
GLENDALE       MOSUNNY  108  48  13 SW5       29.85F HX 104
LUKE AFB       SUNNY    106  51  16 CALM      29.83F HX 103
6HR MIN TEMP:  97; 6HR MAX TEMP: 106;

DEER VALLEY    SUNNY    104  46  14 CALM      29.85F HX 100
6HR MIN TEMP:  96; 6HR MAX TEMP: 106;

SCOTTSDALE     SUNNY    106  46  13 VRB3      29.87F HX 102
6HR MIN TEMP:  97; 6HR MAX TEMP: 107;

MESA-FALCON    MOSUNNY  106  52  16 W6        29.87F HX 103
MESA-GATEWAY   MOSUNNY  102  52  18 VRB3      29.87F HX 100
CHANDLER       MOSUNNY  106  48  14 SW6       29.85F HX 102
$$

AZZ539-553-230100-
SOUTHWEST MARICOPA COUNTY AND PINAL COUNTY

CITY           SKY/WX    TMP DP  RH WIND       PRES   REMARKS
CASA GRANDE      N/A    N/A N/A N/A MISG        N/A
GILA BEND      MOSUNNY  107  47  13 CALM      29.81F HX 102
6HR MIN TEMP:  98; 6HR MAX TEMP: 108;

$$

AZZ503-504-507>509-230100-
SOUTHEAST ARIZONA

CITY           SKY/WX    TMP DP  RH WIND       PRES   REMARKS
TUCSON         MOSUNNY  100  54  20 E14       29.96F
DAVIS-MONTHAN  MOSUNNY   98  56  24 E13G26    29.95S
6HR MIN TEMP:  96; 6HR MAX TEMP: 106;

NOGALES        MOSUNNY   94  51  23 SW9       30.08S
SIERRA VISTA   CLOUDY    88  51  28 S10       30.15S
6HR MIN TEMP:  87; 6HR MAX TEMP:  93;

DOUGLAS        SUNNY     92  52  25 SW7       30.09F
6HR MIN TEMP:  85; 6HR MAX TEMP:  94;

SAFFORD        SUNNY     99  50  19 VRB3      29.98F
6HR MIN TEMP:  91; 6HR MAX TEMP: 100;

$$

AZZ532-230100-
SOUTHWEST ARIZONA

CITY           SKY/WX    TMP DP  RH WIND       PRES   REMARKS
YUMA           SUNNY    106  54  17 W6        29.79F HX 104
6HR MIN TEMP:  99; 6HR MAX TEMP: 107;

$$

CAZ041-043-047-048-061-525>527-560>570-230100-
SOUTHERN CALIFORNIA

CITY           SKY/WX    TMP DP  RH WIND       PRES   REMARKS
DOWNTOWN L.A.  SUNNY     78  63  59 VRB5      29.93F
6HR MIN TEMP:  76; 6HR MAX TEMP:  82;

L.A. AIRPORT   MOSUNNY   73  64  73 SW18      29.94F
6HR MIN TEMP:  72; 6HR MAX TEMP:  75;

SAN DIEGO      PTSUNNY   73  63  70 NW12      29.97F
6HR MIN TEMP:  73; 6HR MAX TEMP:  77;

BURBANK        SUNNY     85  61  44 S10       29.92F
6HR MIN TEMP:  79; 6HR MAX TEMP:  87;

ONTARIO        MOSUNNY   91  58  32 W16G23    29.91F
6HR MIN TEMP:  78; 6HR MAX TEMP:  95;

RIVERSIDE      SUNNY     90  62  39 W13G18    29.91S
6HR MIN TEMP:  78; 6HR MAX TEMP:  96;

PALM SPRINGS   SUNNY    107  51  15 VRB7      29.83F HX 104
6HR MIN TEMP: 101; 6HR MAX TEMP: 110;

EL CENTRO NAS  MOSUNNY  107  50  15 SE8       29.79F HX 104
6HR MIN TEMP:  99; 6HR MAX TEMP: 108;

IMPERIAL       PTSUNNY  108  57  18 SE10G16   29.76F HX 108
6HR MIN TEMP:  98; 6HR MAX TEMP: 109;

BLYTHE         SUNNY    107  49  14 S9        29.81F HX 104
6HR MIN TEMP: 100; 6HR MAX TEMP: 108;

NEEDLES        SUNNY    106  45  12 CALM      29.84F HX 101
6HR MIN TEMP:  99; 6HR MAX TEMP: 109;

$$

NVZ020-UTZ003-230100-
SOUTHERN NEVADA-UTAH

CITY           SKY/WX    TMP DP  RH WIND       PRES   REMARKS
LAS VEGAS      MOSUNNY  100  43  14 CALM      29.95F
6HR MIN TEMP:  91; 6HR MAX TEMP: 100;

SALT LAKE CITY CLOUDY    87  44  22 E7        30.13S
6HR MIN TEMP:  85; 6HR MAX TEMP:  91;

$$

NMZ009-TXZ055-230100-
NEW MEXICO-WEST TEXAS

CITY           SKY/WX    TMP DP  RH WIND       PRES   REMARKS
ALBUQUERQUE    CLOUDY    86  52  30 W7        30.21F
6HR MIN TEMP:  79; 6HR MAX TEMP:  87;

EL PASO        NOT AVBL
$$


........................KEY........................
SKY/WX - SKY CONDITION/WEATHER
TMP    - TEMPERATURE IN FAHRENHEIT
DP     - DEW POINT IN FAHRENHEIT
RH     - RELATIVE HUMIDITY IN PERCENT
WIND   - DIRECTION AND SPEED IN MILES PER HOUR (MPH)
VRB    - VARIABLE WIND DIRECTION
PRES   - MEAN SEA LEVEL PRESSURE IN INCHES OF MERCURY
         F - FALLING PRESSURE   R - RISING PRESSURE
         S - STEADY PRESSURE
VSB    - VISIBILITY IN MILES
HX     - HEAT INDEX IN FAHRENHEIT
WCI    - WIND CHILL INDEX IN FAHRENHEIT
TC     - TEMPERATURE IN CELSIUS WHICH IS ALSO KNOWN AS
         TEMPERATURE IN CENTIGRADE
AFB    - AIR FORCE BASE
         LUKE AFB IS LUKE AIR FORCE BASE
         DAVIS-MONTHAN IS DAVIS-MONTHAN AIR FORCE BASE
NAS    - NAVAL AIR STATION
         EL CENTRO NAS IS EL CENTRO NAVAL AIR STATION
N/A    - NOT AVAILABLE





USA.gov is the U.S. government's official web portal to all federal, state and local government web resources and services.